Location: Banff
(51.1667°N, 115.5667°W)
Time: 17:06:48
(UTC+00:00)

Transit 2A Rocket - All Passes

Search period start: 04 December 2020 00:00
Search period end: 14 December 2020 00:00
Orbit: 589 x 914 km, 66.7° (Epoch: 03 December)

Date Brightness Start Highest point End Pass type
(mag) Time Alt. Az. Time Alt. Az. Time Alt. Az.
04 Dec - 06:40:18 10° ESE 06:41:29 11° ESE 06:42:40 10° E night (unlit)
04 Dec - 08:17:20 10° SSW 08:23:06 55° ESE 08:28:28 10° NE night (unlit)
04 Dec - 10:00:29 10° WSW 10:05:55 40° NW 10:10:58 10° NNE visible
04 Dec - 11:46:18 10° WNW 11:49:55 17° NNW 11:53:21 10° NNE visible
04 Dec - 13:31:31 10° NNW 13:34:36 15° N 13:37:30 10° NE visible
04 Dec - 15:14:18 10° NNW 15:18:50 31° NE 15:22:58 10° E daylight
04 Dec - 16:56:55 10° NW 17:01:45 59° WSW 17:06:10 10° SSE daylight
05 Dec - 07:35:18 10° S 07:40:37 36° ESE 07:45:39 10° NE night (unlit)
05 Dec - 09:17:24 10° WSW 09:23:08 55° NW 09:28:27 10° NNE night (unlit)
05 Dec - 11:02:42 10° WNW 11:06:49 20° NNW 11:10:43 10° NNE visible
05 Dec - 12:48:32 10° NNW 12:51:24 14° N 12:54:09 10° NE visible
05 Dec - 14:31:46 10° NNW 14:35:51 24° NNE 14:39:41 10° E visible
05 Dec - 16:14:14 10° NW 16:19:12 86° NE 16:23:44 10° SE daylight
05 Dec - 17:58:13 10° WNW 18:00:58 15° WSW 18:03:36 10° SW daylight
06 Dec - 06:53:42 10° SSE 06:58:15 24° ESE 07:02:36 10° ENE night (unlit)
06 Dec - 08:34:32 10° SW 08:40:26 79° NW 08:45:53 10° NE night (unlit)
06 Dec - 10:19:09 10° W 10:23:48 25° NNW 10:28:10 10° NNE visible
06 Dec - 12:05:16 10° NW 12:08:13 15° N 12:11:02 10° NNE visible
06 Dec - 13:49:11 10° NNW 13:52:49 19° NNE 13:56:15 10° ENE visible
06 Dec - 15:31:37 10° NNW 15:36:32 56° NE 15:41:00 10° SE daylight
06 Dec - 17:14:48 10° WNW 17:18:44 26° WSW 17:22:26 10° SSW daylight
07 Dec - 06:12:51 10° SE 06:15:59 15° ESE 06:19:02 10° ENE night (unlit)
07 Dec - 07:51:58 10° SSW 07:57:50 71° ESE 08:03:15 10° NE night (unlit)
07 Dec - 09:35:44 10° W 09:40:52 33° NW 09:45:39 10° NNE visible
07 Dec - 11:21:46 10° NW 11:25:02 16° NNW 11:28:09 10° NNE visible
07 Dec - 13:06:29 10° NNW 13:09:43 16° NNE 13:12:46 10° NE visible
07 Dec - 14:49:04 10° NNW 14:53:45 38° NE 14:58:02 10° ESE visible
07 Dec - 16:31:49 10° NW 16:36:23 42° WSW 16:40:36 10° S daylight
08 Dec - 07:09:42 10° S 07:15:19 47° ESE 07:20:33 10° NE night (unlit)
08 Dec - 08:52:30 10° WSW 08:58:01 44° NW 09:03:07 10° NNE night (unlit)
08 Dec - 10:38:10 10° WNW 10:41:55 18° NNW 10:45:27 10° NNE visible
08 Dec - 12:23:39 10° NNW 12:26:33 15° N 12:29:20 10° NE visible
08 Dec - 14:06:32 10° NNW 14:10:51 28° NNE 14:14:52 10° E visible
08 Dec - 15:49:03 10° NW 15:53:55 70° WSW 15:58:22 10° SSE daylight
08 Dec - 17:34:31 10° W 17:35:25 10° WSW 17:36:18 10° WSW daylight
09 Dec - 06:27:48 10° S 06:32:53 31° ESE 06:37:40 10° NE night (unlit)
09 Dec - 08:09:29 10° SW 08:15:16 62° NW 08:20:36 10° NE night (unlit)
09 Dec - 09:54:34 10° WNW 09:58:50 22° NNW 10:02:51 10° NNE visible
09 Dec - 11:40:34 10° NNW 11:43:21 14° N 11:46:03 10° NNE visible
09 Dec - 13:23:59 10° NNW 13:27:52 22° NNE 13:31:31 10° ENE visible
09 Dec - 15:06:24 10° NW 15:11:20 74° NE 15:15:49 10° SE daylight
09 Dec - 16:50:02 10° WNW 16:53:15 18° WSW 16:56:19 10° SSW daylight
10 Dec - 05:46:25 10° SSE 05:50:33 20° ESE 05:54:29 10° ENE night (unlit)
10 Dec - 07:26:44 10° SW 07:32:36 89° NW 07:38:01 10° NE night (unlit)
10 Dec - 09:11:03 10° W 09:15:51 27° NNW 09:20:19 10° NNE night (unlit)
10 Dec - 10:57:12 10° NW 11:00:11 15° N 11:03:01 10° NNE visible
10 Dec - 12:41:22 10° NNW 12:44:48 18° NNE 12:48:02 10° ENE visible
10 Dec - 14:23:50 10° NNW 14:28:38 48° NE 14:33:01 10° ESE visible
10 Dec - 16:06:49 10° NW 16:10:58 30° WSW 16:14:52 10° S daylight
11 Dec - 05:06:04 10° SE 05:08:18 12° ESE 05:10:30 10° E night (unlit)
11 Dec - 06:44:16 10° SSW 06:50:01 62° ESE 06:55:22 10° NE night (unlit)
11 Dec - 08:27:42 10° WSW 08:32:56 36° NW 08:37:48 10° NNE night (unlit)
11 Dec - 10:13:39 10° NW 10:17:00 16° NNW 10:20:12 10° NNE visible
11 Dec - 11:58:39 10° NNW 12:01:40 15° NNE 12:04:33 10° NE visible
11 Dec - 13:41:17 10° NNW 13:45:49 33° NE 13:49:58 10° ESE visible
11 Dec - 15:23:56 10° NW 15:28:35 50° WSW 15:32:53 10° SSE daylight
12 Dec - 06:02:07 10° S 06:07:32 40° ESE 06:12:36 10° NE night (unlit)
12 Dec - 07:44:32 10° WSW 07:50:08 49° NW 07:55:17 10° NNE night (unlit)
12 Dec - 09:30:02 10° WNW 09:33:53 19° NNW 09:37:33 10° NNE night (unlit)
12 Dec - 11:15:43 10° NNW 11:18:29 14° N 11:21:09 10° NE visible
12 Dec - 12:58:45 10° NNW 13:02:52 25° NNE 13:06:43 10° E visible
12 Dec - 14:41:12 10° NW 14:46:05 83° SW 14:50:32 10° SSE visible
12 Dec - 16:25:40 10° WNW 16:27:43 13° WSW 16:29:43 10° SW daylight
13 Dec - 05:20:22 10° SSE 05:25:08 26° ESE 05:29:38 10° ENE night (unlit)
13 Dec - 07:01:36 10° SW 07:07:24 71° NW 07:12:44 10° NE night (unlit)
13 Dec - 08:46:26 10° W 08:50:51 23° NNW 08:54:59 10° NNE night (unlit)
13 Dec - 10:32:32 10° NW 10:35:18 14° N 10:37:57 10° NNE visible
13 Dec - 12:16:11 10° NNW 12:19:51 20° NNE 12:23:19 10° ENE visible
13 Dec - 13:58:35 10° NW 14:03:27 63° NE 14:07:53 10° SE visible
13 Dec - 15:41:56 10° WNW 15:45:31 22° WSW 15:48:54 10° SSW daylight
